Total_Precipitation_Accumulation
0.20 0.21 0.30 0.43 0.41 0.28 0.11 0.03 0.02 0.03 0.04 0.05 0.06 0.08 0.07 0.08 0.11 0.23 0.22 0.17 0.16 0.18 0.27 0.50 0.74 0.88 0.87 0.80 0.70 0.61 0.57 0.53 0.54 0.58 0.61 0.59 0.55 0.53 0.54 0.57 0.59 0.64 0.68 0.71 0.75 0.70 0.66 0.58 0.47
0.22 0.33 0.52 0.61 0.45 0.28 0.11 0.03 0.02 0.03 0.04 0.05 0.07 0.08 0.08 0.09 0.10 0.17 0.25 0.25 0.21 0.23 0.32 0.49 0.75 0.95 0.96 0.91 0.81 0.74 0.78 0.72 0.68 0.70 0.73 0.72 0.71 0.67 0.66 0.66 0.67 0.67 0.66 0.64 0.63 0.53 0.48 0.38 0.33
0.37 0.53 0.72 0.69 0.49 0.27 0.11 0.04 0.04 0.05 0.05 0.07 0.08 0.09 0.11 0.14 0.15 0.19 0.28 0.34 0.35 0.36 0.45 0.64 0.86 1.04 1.08 0.97 0.95 0.91 0.94 0.93 0.88 0.83 0.84 0.86 0.83 0.77 0.72 0.68 0.69 0.65 0.61 0.54 0.50 0.41 0.31 0.26 0.23
0.60 0.78 0.82 0.68 0.48 0.23 0.10 0.06 0.07 0.08 0.07 0.08 0.11 0.17 0.18 0.17 0.20 0.25 0.36 0.44 0.47 0.51 0.59 0.80 0.99 1.14 1.18 1.06 1.02 1.03 1.05 1.08 1.05 0.95 0.90 0.93 0.93 0.84 0.72 0.68 0.63 0.56 0.52 0.49 0.42 0.35 0.27 0.23 0.23
0.88 1.00 0.83 0.64 0.41 0.21 0.10 0.09 0.10 0.11 0.11 0.12 0.15 0.21 0.25 0.23 0.25 0.37 0.53 0.62 0.64 0.73 0.81 0.96 1.20 1.40 1.43 1.33 1.24 1.18 1.15 1.16 1.18 1.08 0.98 1.00 1.04 1.02 0.83 0.69 0.58 0.50 0.46 0.43 0.38 0.32 0.28 0.24 0.24
1.15 1.15 0.88 0.56 0.34 0.21 0.11 0.10 0.11 0.14 0.14 0.16 0.22 0.28 0.37 0.36 0.38 0.49 0.70 0.81 0.85 0.93 1.02 1.20 1.45 1.57 1.66 1.57 1.46 1.40 1.35 1.26 1.22 1.22 1.16 1.11 1.14 1.14 0.95 0.71 0.59 0.54 0.49 0.43 0.40 0.37 0.30 0.27 0.25
1.16 1.15 0.84 0.43 0.28 0.24 0.13 0.12 0.15 0.16 0.16 0.19 0.25 0.36 0.48 0.54 0.63 0.69 0.87 1.05 1.14 1.22 1.35 1.43 1.56 1.69 1.86 1.72 1.54 1.52 1.49 1.41 1.34 1.30 1.25 1.16 1.15 1.10 0.94 0.72 0.62 0.59 0.55 0.48 0.43 0.42 0.37 0.31 0.28
1.16 1.25 0.84 0.42 0.27 0.27 0.19 0.16 0.18 0.20 0.21 0.21 0.31 0.44 0.54 0.65 0.82 0.98 1.14 1.26 1.45 1.54 1.68 1.68 1.70 1.76 1.95 1.92 1.66 1.49 1.39 1.38 1.40 1.33 1.15 0.95 0.94 0.98 0.91 0.65 0.59 0.60 0.55 0.48 0.45 0.43 0.42 0.35 0.26
1.19 1.26 0.81 0.45 0.33 0.29 0.25 0.26 0.24 0.23 0.31 0.35 0.41 0.49 0.61 0.80 1.08 1.32 1.49 1.58 1.76 1.91 1.96 1.97 1.90 1.84 1.93 1.98 1.76 1.66 1.51 1.42 1.40 1.35 1.11 0.94 0.95 0.94 0.85 0.62 0.46 0.52 0.52 0.49 0.49 0.50 0.46 0.36 0.27
1.23 1.03 0.61 0.40 0.36 0.35 0.31 0.32 0.33 0.38 0.44 0.50 0.60 0.69 0.85 1.13 1.49 1.64 1.71 1.74 1.85 2.02 2.10 2.18 2.08 2.03 2.06 2.06 1.94 1.89 1.74 1.58 1.47 1.33 1.20 1.09 1.00 0.99 0.87 0.75 0.52 0.49 0.50 0.51 0.55 0.52 0.52 0.41 0.30
0.90 0.75 0.52 0.41 0.38 0.39 0.40 0.37 0.39 0.47 0.52 0.51 0.60 0.81 1.12 1.48 1.83 1.86 1.98 2.08 2.04 2.19 2.28 2.37 2.28 2.27 2.24 2.17 2.03 1.91 1.77 1.70 1.64 1.54 1.33 1.24 1.18 1.08 1.06 0.93 0.79 0.69 0.55 0.55 0.53 0.54 0.48 0.40 0.34
0.65 0.52 0.48 0.46 0.40 0.43 0.45 0.46 0.50 0.50 0.50 0.50 0.59 0.79 1.16 1.56 1.84 1.92 2.14 2.27 2.37 2.47 2.59 2.60 2.55 2.53 2.46 2.35 2.15 1.92 1.73 1.62 1.59 1.55 1.51 1.41 1.31 1.18 1.08 0.98 0.84 0.77 0.62 0.56 0.53 0.48 0.43 0.39 0.39
0.52 0.43 0.43 0.50 0.50 0.47 0.45 0.46 0.55 0.49 0.48 0.55 0.66 0.91 1.20 1.58 1.93 2.09 2.35 2.49 2.59 2.74 2.80 2.86 2.81 2.69 2.54 2.50 2.39 2.04 1.75 1.54 1.50 1.54 1.53 1.49 1.33 1.17 1.10 1.02 0.97 0.87 0.72 0.64 0.59 0.54 0.47 0.42 0.42
0.43 0.41 0.48 0.56 0.62 0.51 0.50 0.51 0.56 0.53 0.51 0.62 0.76 0.96 1.17 1.55 2.04 2.26 2.55 2.78 2.72 2.94 3.05 3.16 3.06 2.89 2.61 2.43 2.41 2.21 1.91 1.67 1.56 1.49 1.46 1.53 1.47 1.32 1.26 1.07 1.03 0.98 0.88 0.80 0.74 0.66 0.62 0.55 0.52
0.47 0.56 0.62 0.66 0.69 0.56 0.59 0.68 0.59 0.54 0.51 0.60 0.74 0.95 1.15 1.47 1.91 2.23 2.49 2.67 2.86 3.03 3.25 3.33 3.33 3.17 2.82 2.54 2.47 2.31 2.10 1.91 1.72 1.44 1.37 1.41 1.50 1.55 1.54 1.28 1.13 1.05 1.01 0.99 0.93 0.85 0.81 0.71 0.61
0.76 0.90 0.84 0.60 0.66 0.63 0.73 0.78 0.54 0.52 0.55 0.56 0.65 0.86 1.06 1.27 1.64 1.98 2.36 2.59 2.79 3.09 3.28 3.37 3.40 3.34 3.11 2.77 2.62 2.49 2.25 2.09 1.93 1.68 1.50 1.40 1.45 1.60 1.73 1.47 1.27 1.17 1.15 1.10 1.00 0.91 0.87 0.77 0.70
1.08 0.88 0.68 0.51 0.53 0.66 0.67 0.71 0.58 0.54 0.57 0.53 0.56 0.72 0.99 1.17 1.38 1.65 2.05 2.41 2.59 2.92 3.17 3.45 3.43 3.35 3.26 3.10 2.96 2.82 2.61 2.36 2.14 1.85 1.63 1.58 1.57 1.64 1.80 1.55 1.34 1.30 1.26 1.15 1.10 1.02 0.94 0.85 0.77
0.86 0.55 0.46 0.48 0.50 0.59 0.56 0.50 0.57 0.59 0.58 0.53 0.56 0.65 0.85 1.09 1.16 1.37 1.72 2.19 2.41 2.73 3.03 3.23 3.54 3.53 3.56 3.53 3.37 3.20 3.05 2.76 2.46 2.09 1.78 1.69 1.68 1.67 1.82 1.73 1.50 1.46 1.40 1.26 1.14 1.10 1.10 1.07 0.97
0.68 0.56 0.44 0.36 0.41 0.55 0.51 0.44 0.53 0.52 0.57 0.56 0.57 0.62 0.69 0.88 1.04 1.26 1.59 1.97 2.28 2.48 2.79 2.94 3.19 3.46 3.54 3.46 3.20 3.01 2.89 2.90 2.76 2.43 2.11 1.99 1.86 1.75 1.80 1.86 1.72 1.55 1.47 1.38 1.28 1.19 1.15 1.18 1.24
0.83 0.77 0.54 0.39 0.34 0.51 0.52 0.47 0.50 0.52 0.55 0.55 0.58 0.57 0.61 0.71 0.89 1.11 1.49 1.71 1.94 2.19 2.37 2.69 2.81 3.15 3.25 3.13 3.09 2.98 2.97 2.98 2.93 2.78 2.50 2.29 2.12 1.95 1.86 1.85 1.83 1.69 1.56 1.53 1.54 1.43 1.32 1.24 1.24
0.88 0.76 0.63 0.56 0.48 0.57 0.65 0.63 0.51 0.50 0.47 0.43 0.45 0.45 0.52 0.60 0.71 0.89 1.23 1.52 1.67 1.93 2.20 2.32 2.47 2.74 3.05 3.14 3.28 3.37 3.35 3.16 2.97 2.86 2.78 2.54 2.39 2.23 2.01 1.91 1.93 1.87 1.69 1.54 1.57 1.62 1.57 1.52 1.48
0.92 0.56 0.61 0.67 0.84 0.84 0.68 0.87 0.59 0.47 0.42 0.39 0.42 0.39 0.45 0.55 0.64 0.76 0.87 1.14 1.36 1.57 1.96 2.26 2.47 2.63 2.84 3.21 3.23 3.11 2.95 2.78 2.57 2.61 2.74 2.73 2.58 2.44 2.22 2.11 2.11 2.02 1.86 1.68 1.64 1.67 1.75 1.77 1.72
0.82 0.57 0.66 0.77 0.94 0.95 0.65 0.74 0.60 0.41 0.41 0.41 0.43 0.43 0.51 0.64 0.71 0.74 0.77 0.92 1.11 1.30 1.68 2.04 2.29 2.61 2.85 2.98 3.05 3.09 2.84 2.63 2.62 2.61 2.67 2.63 2.53 2.47 2.36 2.23 2.27 2.18 2.04 1.94 1.89 1.83 1.87 1.88 1.82
0.90 0.94 1.03 1.10 1.43 1.43 0.61 0.60 0.60 0.49 0.50 0.47 0.46 0.48 0.57 0.67 0.74 0.73 0.76 0.87 1.03 1.15 1.37 1.75 2.02 2.17 2.47 2.77 2.83 2.86 2.83 2.74 2.70 2.55 2.50 2.56 2.54 2.49 2.41 2.38 2.34 2.30 2.23 2.12 2.05 2.00 2.01 2.00 1.95
1.35 1.91 2.54 2.48 2.13 1.15 0.43 0.47 0.55 0.49 0.51 0.55 0.57 0.59 0.61 0.63 0.67 0.68 0.74 0.85 1.00 1.14 1.25 1.41 1.65 1.78 1.97 2.24 2.43 2.49 2.62 2.67 2.57 2.47 2.29 2.29 2.31 2.31 2.31 2.28 2.31 2.33 2.28 2.25 2.21 2.16 2.08 2.08 2.08
1.38 1.64 1.95 1.63 1.02 0.59 0.39 0.47 0.52 0.48 0.51 0.54 0.56 0.57 0.55 0.61 0.64 0.65 0.66 0.75 0.87 1.02 1.17 1.24 1.36 1.51 1.68 1.85 2.00 2.19 2.38 2.53 2.51 2.47 2.26 2.12 2.08 2.07 2.23 2.22 2.12 2.14 2.21 2.23 2.21 2.16 2.06 2.02 1.98
1.26 1.24 1.11 1.37 0.86 0.58 0.47 0.42 0.40 0.37 0.37 0.44 0.49 0.48 0.52 0.60 0.64 0.61 0.61 0.65 0.78 0.89 1.05 1.11 1.23 1.34 1.44 1.60 1.75 1.91 2.06 2.18 2.23 2.32 2.29 2.17 2.06 2.00 1.99 2.00 1.97 1.89 1.93 2.04 2.12 2.04 1.98 1.95 1.91
1.03 1.03 1.28 1.78 1.42 0.84 0.49 0.37 0.49 0.46 0.44 0.47 0.49 0.52 0.59 0.62 0.60 0.56 0.58 0.66 0.77 0.80 0.90 1.05 1.17 1.24 1.27 1.36 1.49 1.59 1.73 1.93 2.03 2.09 2.08 2.03 2.02 1.97 1.90 1.78 1.74 1.69 1.69 1.76 1.88 1.87 1.80 1.80 1.75
0.99 1.23 1.45 1.46 1.16 1.00 0.73 0.61 0.61 0.55 0.51 0.51 0.52 0.54 0.62 0.64 0.62 0.62 0.63 0.72 0.84 0.81 0.85 0.98 1.11 1.24 1.27 1.29 1.36 1.40 1.40 1.51 1.70 1.85 1.92 1.89 1.93 1.92 1.86 1.73 1.65 1.60 1.54 1.54 1.60 1.59 1.62 1.66 1.64
0.86 0.95 1.18 1.57 1.18 0.85 0.81 0.80 0.61 0.55 0.51 0.48 0.50 0.52 0.55 0.58 0.59 0.65 0.70 0.70 0.76 0.85 0.90 0.95 1.01 1.18 1.30 1.32 1.34 1.37 1.36 1.32 1.41 1.54 1.71 1.79 1.87 1.84 1.84 1.78 1.65 1.55 1.48 1.44 1.46 1.45 1.44 1.46 1.48